星链-37371(STARLINK-37371)

导读

STARLINK-37371(NORAD编号68977)是美国SpaceX公司星链(Starlink)星座中的一颗低轨互联网通信卫星。星链项目旨在通过部署近地轨道卫星群,为全球尤其是偏远地区提供高速低延迟的互联网接入服务。作为星链卫星家族的一员,它运行在近地轨道,承担着星座组网中的通信转发任务,助力扩展全球网络覆盖范围。这类小型低轨卫星依托SpaceX可重复发射技术降低成本,批量部署构建卫星互联网,虽提升了全球连通性,也引发了太空拥堵和天文观测干扰等争议。

基本信息
目录编号:
68977
目录名称:
STARLINK-37371
国际标识:
2026-099AC
轨道中心:
EARTH
卫星名称:
星链-37371
卫星全名:
星链-37371(STARLINK-37371)
卫星状态:
在轨 (已飞行135 天)
发射日期:
2026-05-01 UTC
国别 :
美国 (US)
星等 :
--
该卫星已列入 空间交会检测服务 Space Conjunction Data Service (SCDS) ,当前飞行风险评估等级: 无高风险
轨道信息
数据来源 国际轨道数据
星历时间: 2026-09-13T07:25:36+0800
11小时前
查看轨道信息
半长轴: 6840.86km
偏心率: 0.0001352
轨道倾角: 53.158°
近地点辐角 89.121°
升交点赤经 110.635°
平近点角 270.995°
近地点: 461.798km
远地点: 463.648km
周期: 93.848分钟
每日圈数: 15.343934
详细信息
固有亮度:
5
最大亮度:
2.5
卫星平台:
Starlink V1.0
覆盖范围:
全球
运营商:
太空探索技术公司
运营商所在国:
美国
制造商(研发单位):
太空探索技术公司
制造商所在国:
美国
使用方式:
暂无
卫星简介
Starlink 计划是 SpaceX 推出的全球卫星互联网项目,通过发射低轨道卫星,为全球尤其是偏远地区提供高速、低延迟的互联网服务。自 2019 年起,Starlink 已部署数千颗卫星,旨在缩小全球数字鸿沟,推动互联网普及。该项目还为军事、航空等行业提供通信支持,带来广泛经济效益。
2D轨道图
3D轨道图
轨道高度分析图
轨道倾角分析图
轨道综合分析图
查看轨道综合分析图
交会数据列表
事件ID 空间交会对象 最接近时刻(TCA) 交会距离 交会风险概率(CRP) 交会风险指数(CRI) 操作
CDM_260913-193203-279106-897721
SEEDS (32791)
2026-09-13T
19:32:31+0000
2.216 km
极远距离
2.201118E-6 低风险 0.42
CDM_260913-201903-279106-897721
SEEDS (32791)
2026-09-13T
20:19:26+0000
2.627 km
极远距离
1.59013E-6 低风险 0.39
与全量物体交会距离演化趋势
与全量物体交会风险概率演化趋势